Regional Weather Roundup
Issued by NWS

Home | Current Version | Previous Version | Text Only | Print | Product List | Glossary On
Versions: 1 2 3 4 5 6 7 8 9 10 11 12 13 14 15 16 17 18 19 20 21 22 23 24 25 26 27 28 29 30 31 32 33 34 35 36 37 38 39 40 41 42 43 44 45 46 47 48 49 50
000
ASUS43 KOAX 231110
RWRNE

WEATHER ROUNDUP FOR NEBRASKA
NATIONAL WEATHER SERVICE OMAHA NE
600 AM CDT SAT SEP 23 2017

NOTES: SATELLITE DATA IS BEING USED TO AUGMENT CLOUD COVER ABOVE
       12000 FEET.
       "FAIR" INDICATES FEW OR NO CLOUDS BELOW 12,000 FEET WITH NO
       SIGNIFICANT WEATHER AND/OR OBSTRUCTIONS TO VISIBILITY.


NEZ001>004-019>022-054>056-231200-
NEBRASKA PANHANDLE

CITY           SKY/WX    TMP DP  RH WIND       PRES   REMARKS
SCOTTSBLUFF    CLOUDY    46  38  73 NW8       30.00R
ALLIANCE       CLOUDY    45  39  79 N16       29.97R
CHADRON        CLOUDY    45  38  76 NE10      30.01F
GORDON         CLOUDY    45  41  87 N12       30.02R
KIMBALL        CLOUDY    44  41  89 N8        30.00S
SIDNEY         CLOUDY    46  39  76 N13       29.97R
$$

NEZ057>060-069>072-079>082-231200-
SOUTHWEST NEBRASKA

CITY           SKY/WX    TMP DP  RH WIND       PRES   REMARKS
NORTH PLATTE   CLOUDY    54  49  83 NE10      29.92R
IMPERIAL       PTCLDY    51  47  86 N12       29.89R
LEXINGTON      CLOUDY    62  54  73 NE10G17   29.89S
MCCOOK         PTCLDY    71  64  78 SE6       29.83F
OGALLALA       CLOUDY    50  47  89 NE13      29.92S
$$

NEZ005>010-023>029-035>040-094-231200-
NORTH CENTRAL NEBRASKA

CITY           SKY/WX    TMP DP  RH WIND       PRES   REMARKS
VALENTINE      CLOUDY    50  46  86 N8        29.99R
AINSWORTH      TSTM      48  48 100 N14       29.98R
BROKEN BOW     CLOUDY    55  49  80 N13       29.92F
O`NEILL        CLOUDY    53  52  97 N6        29.97R
ORD            CLOUDY    57  51  80 N12       29.93R
THEDFORD       CLOUDY    48  47  95 N7        29.97F
$$

NEZ041-046>049-061>064-073>077-083>087-231200-
SOUTH CENTRAL NEBRASKA

CITY           SKY/WX    TMP DP  RH WIND       PRES   REMARKS
GRAND ISLAND   CLEAR     71  68  90 S7        29.90R
AURORA         CLEAR     71  67  89 S7        29.90R
HASTINGS       CLEAR     73  65  75 S12       29.89R
HEBRON         CLEAR     72  67  84 S10       29.90S
HOLDREGE       PTCLDY    71  64  78 S3        29.88R
KEARNEY        CLEAR     71  65  81 S8        29.89R
YORK           CLEAR     70  68  94 S5        29.91R
$$

NEZ011>018-030>034-042>045-231200-
NORTHEAST NEBRASKA

CITY           SKY/WX    TMP DP  RH WIND       PRES   REMARKS
NORFOLK        CLEAR     60  59  96 NW8       29.93R
ALBION         PTCLDY    60  57  91 N7        29.93R
BLAIR          CLEAR     71  67  87 S5        29.93R
COLUMBUS       MOCLDY    72  67  84 S8        29.91R
FREMONT        CLEAR     70  66  87 SE7       29.92R
TEKAMAH        PTCLDY    70  66  87 S5        29.91R
WAYNE          PTCLDY    62  60  91 N8        29.93R
$$

NEZ050>053-065>068-078-088>093-231200-
SOUTHEAST NEBRASKA

CITY           SKY/WX    TMP DP  RH WIND       PRES   REMARKS
LINCOLN        CLEAR     71  66  84 S8        29.92R
OMAHA EPPLEY   PTCLDY    73  67  81 S10       29.93R
BEATRICE       CLEAR     72  67  84 S9        29.92R
FALLS CITY     CLEAR     69  66  90 SE3       29.94R
NEBRASKA CITY  CLEAR     70  70 100 S7        29.94S
PLATTSMOUTH    CLEAR     70  68  95 S8        29.94R
$$

NEZ044-045-051>053-067-231200-
OMAHA AREA

CITY           SKY/WX    TMP DP  RH WIND       PRES   REMARKS
OMAHA EPPLEY   PTCLDY    73  67  81 S10       29.93R
BLAIR          CLEAR     71  67  87 S5        29.93R
FREMONT        CLEAR     70  66  87 SE7       29.92R
MILLARD        CLEAR     73  68  86 SE5       29.93R
OFFUTT AFB     CLEAR     70  67  90 E7        29.93R
PLATTSMOUTH    CLEAR     70  68  95 S8        29.94R
WAHOO          FAIR      68  66  96 E5        29.92S
$$




USA.gov is the U.S. government's official web portal to all federal, state and local government web resources and services.